Weather History for Wise, VA

Change the Weather History Date:

Monday, November 3, 2014

  Actual Average Record
Temperature  
Mean Temperature 44 °F -  
Max Temperature 60 °F 56 °F 78 °F (2003)
Min Temperature 28 °F 38 °F 19 °F (1996)
Degree Days  
Heating Degree Days 21    
Moisture  
Dew Point 19 °F    
Average Humidity 44    
Maximum Humidity 75    
Minimum Humidity 10    
Precipitation  
Precipitation 0.00 in - - ()
Sea Level Pressure  
Sea Level Pressure 30.37 in    
Wind  
Wind Speed 4 mph (SW)    
Max Wind Speed 13 mph    
Max Gust Speed 16 mph    
Visibility 10 miles    
Events      
Averages and records for this station are not official NWS values.
T = Trace of Precipitation, MM = Missing Value Source: NWS Daily Summary

Daily Weather History Graph

Daily Weather History Graph

Search for Another Location

Airport:

Trip Planner

Search our weather history database for the weather conditions in past years. The results will help you decide how hot, cold, wet, or windy it might be!

Date:

Astronomy

Nov. 03, 2014 Rise Set
Actual Time 6:56 AM EST 5:30 PM EST
Civil Twilight 6:29 AM EST 5:57 PM EST
Nautical Twilight 5:58 AM EST 6:28 PM EST
Astronomical Twilight 5:28 AM EST 6:58 PM EST
Moon 3:34 PM EST (11/3) 3:10 AM EST (11/3)
Length of Visible Light 11h 28m
Length of Day
10h 34m
Waxing Gibbous, 87% of the Moon is Illuminated
Nov 3
Waxing Gibbous
Nov 6
Full
Nov 14
Last Quarter
Nov 22
New
Nov 29
First Quarter

Hourly Weather History & Observations

Time (EST) Temp. Windchill Dew Point Humidity Pressure Visibility Wind Dir Wind Speed Gust Speed Precip Events Conditions
12:15 AM 30.2 °F 25.4 °F 23.0 °F 75% 30.37 in 10.0 mi SSW 4.6 mph - N/A   Clear
12:35 AM 32.0 °F - 23.0 °F 69% 30.37 in 10.0 mi Calm Calm - N/A   Clear
12:55 AM 33.8 °F - 21.2 °F 60% 30.37 in 10.0 mi Calm Calm - N/A   Clear
1:15 AM 30.2 °F 25.4 °F 21.2 °F 69% 30.37 in 10.0 mi SW 4.6 mph - N/A   Clear
1:35 AM 30.2 °F - 23.0 °F 75% 30.37 in 10.0 mi Calm Calm - N/A   Clear
1:55 AM 30.2 °F - 23.0 °F 75% 30.36 in 10.0 mi Calm Calm - N/A   Clear
2:15 AM 30.2 °F - 23.0 °F 75% 30.37 in 10.0 mi Calm Calm - N/A   Clear
2:30 AM 32.0 °F - 23.0 °F 69% 30.36 in 10.0 mi Calm Calm - N/A   Clear
2:55 AM 30.2 °F - 23.0 °F 75% 30.36 in 10.0 mi Calm Calm - N/A   Clear
3:15 AM 30.2 °F - 21.2 °F 69% 30.36 in 10.0 mi Calm Calm - N/A   Clear
3:35 AM 30.2 °F - 21.2 °F 69% 30.36 in 10.0 mi Calm Calm - N/A   Clear
3:55 AM 32.0 °F - 21.2 °F 64% 30.35 in 10.0 mi Calm Calm - N/A   Clear
4:15 AM 30.2 °F - 21.2 °F 69% 30.35 in 10.0 mi Calm Calm - N/A   Clear
4:35 AM 30.2 °F - 21.2 °F 69% 30.36 in 10.0 mi Calm Calm - N/A   Clear
4:55 AM 28.4 °F 24.6 °F 21.2 °F 74% 30.37 in 10.0 mi SW 3.5 mph - N/A   Clear
5:15 AM 28.4 °F 23.3 °F 21.2 °F 74% 30.39 in 10.0 mi SSW 4.6 mph - N/A   Clear
5:35 AM 30.2 °F 25.4 °F 21.2 °F 69% 30.38 in 10.0 mi SW 4.6 mph - N/A   Clear
5:55 AM 30.2 °F 24.3 °F 21.2 °F 69% 30.38 in 10.0 mi SSW 5.8 mph - N/A   Clear
6:15 AM 30.2 °F 24.3 °F 21.2 °F 69% 30.38 in 10.0 mi SSW 5.8 mph - N/A   Clear
6:35 AM 32.0 °F - 19.4 °F 60% 30.37 in 10.0 mi Calm Calm - N/A   Scattered Clouds
6:55 AM 32.0 °F - 21.2 °F 64% 30.38 in 10.0 mi Calm Calm - N/A   Overcast
7:15 AM 32.0 °F 28.7 °F 23.0 °F 69% 30.39 in 10.0 mi SW 3.5 mph - N/A   Overcast
7:35 AM 30.2 °F 23.4 °F 23.0 °F 75% 30.41 in 10.0 mi SSW 6.9 mph - N/A   Overcast
7:55 AM 32.0 °F 26.4 °F 24.8 °F 75% 30.41 in 10.0 mi SSW 5.8 mph - N/A   Scattered Clouds
8:15 AM 33.8 °F 27.7 °F 24.8 °F 70% 30.42 in 10.0 mi WSW 6.9 mph - N/A   Scattered Clouds
8:35 AM 35.6 °F 29.9 °F 24.8 °F 65% 30.42 in 10.0 mi SW 6.9 mph - N/A   Mostly Cloudy
8:55 AM 35.6 °F 30.7 °F 26.6 °F 70% 30.42 in 10.0 mi SW 5.8 mph - N/A   Mostly Cloudy
9:15 AM 37.4 °F 32.1 °F 24.8 °F 60% 30.42 in 10.0 mi SW 6.9 mph - N/A   Clear
9:35 AM 41.0 °F 36.4 °F 26.6 °F 57% 30.42 in 10.0 mi SW 6.9 mph - N/A   Clear
9:55 AM 42.8 °F 39.3 °F 23.0 °F 46% 30.43 in 10.0 mi WSW 5.8 mph - N/A   Clear
10:15 AM 44.6 °F 42.2 °F 24.8 °F 46% 30.43 in 10.0 mi SW 4.6 mph - N/A   Clear
10:35 AM 46.4 °F 42.4 °F 19.4 °F 34% 30.43 in 10.0 mi WSW 8.1 mph - N/A   Clear
10:55 AM 50.0 °F - 19.4 °F 30% 30.43 in 10.0 mi WSW 5.8 mph - N/A   Clear
11:10 AM 51.8 °F - 17.6 °F 26% 30.43 in 10.0 mi WSW 8.1 mph - N/A   Clear
11:35 AM 53.6 °F - 8.6 °F 16% 30.42 in 10.0 mi SW 8.1 mph - N/A   Clear
11:55 AM 53.6 °F - 8.6 °F 16% 30.41 in 10.0 mi SW 8.1 mph - N/A   Clear
12:15 PM 55.4 °F - 10.4 °F 17% 30.41 in 10.0 mi SSW 6.9 mph - N/A   Clear
12:35 PM 57.2 °F - 10.4 °F 16% 30.39 in 10.0 mi WSW 8.1 mph - N/A   Clear
12:55 PM 59.0 °F - 6.8 °F 13% 30.38 in 10.0 mi SW 8.1 mph - N/A   Clear
1:15 PM 59.0 °F - 3.2 °F 11% 30.37 in 10.0 mi WSW 10.4 mph - N/A   Clear
1:40 PM 59.0 °F - 5.0 °F 12% 30.36 in 10.0 mi WSW 10.4 mph - N/A   Clear
1:55 PM 59.0 °F - 1.4 °F 10% 30.35 in 10.0 mi SW 6.9 mph - N/A   Clear
2:15 PM 60.8 °F - 5.0 °F 11% 30.35 in 10.0 mi WSW 9.2 mph - N/A   Clear
2:35 PM 60.8 °F - 5.0 °F 11% 30.35 in 10.0 mi SW 12.7 mph 16.1 mph N/A   Clear
2:55 PM 60.8 °F - 8.6 °F 13% 30.34 in 10.0 mi WSW 10.4 mph - N/A   Clear
3:15 PM 60.8 °F - 10.4 °F 14% 30.34 in 10.0 mi West 10.4 mph - N/A   Clear
3:35 PM 60.8 °F - 15.8 °F 17% 30.35 in 10.0 mi SW 9.2 mph - N/A   Clear
3:55 PM 60.8 °F - 15.8 °F 17% 30.34 in 10.0 mi SW 9.2 mph - N/A   Clear
4:15 PM 59.0 °F - 21.2 °F 23% 30.33 in 10.0 mi South 6.9 mph - N/A   Clear
4:35 PM 57.2 °F - 23.0 °F 27% 30.34 in 10.0 mi South 5.8 mph - N/A   Clear
4:55 PM 55.4 °F - 23.0 °F 29% 30.34 in 10.0 mi South 5.8 mph - N/A   Clear
5:15 PM 53.6 °F - 23.0 °F 30% 30.34 in 10.0 mi South 5.8 mph - N/A   Clear
5:35 PM 51.8 °F - 21.2 °F 30% 30.34 in 10.0 mi South 8.1 mph - N/A   Clear
5:55 PM 51.8 °F - 21.2 °F 30% 30.34 in 10.0 mi South 6.9 mph - N/A   Clear
6:15 PM 51.8 °F - 21.2 °F 30% 30.34 in 10.0 mi South 4.6 mph - N/A   Clear
6:35 PM 50.0 °F - 21.2 °F 32% 30.34 in 10.0 mi South 5.8 mph - N/A   Clear
6:55 PM 48.2 °F - 21.2 °F 34% 30.35 in 10.0 mi South 5.8 mph - N/A   Clear
7:15 PM 46.4 °F 42.9 °F 21.2 °F 37% 30.35 in 10.0 mi SW 6.9 mph - N/A   Clear
7:35 PM 46.4 °F 42.9 °F 21.2 °F 37% 30.35 in 10.0 mi SW 6.9 mph - N/A   Clear
7:55 PM 46.4 °F 42.4 °F 21.2 °F 37% 30.34 in 10.0 mi SSW 8.1 mph - N/A   Clear
8:15 PM 44.6 °F 40.2 °F 23.0 °F 43% 30.34 in 10.0 mi SSW 8.1 mph - N/A   Clear
8:35 PM 46.4 °F 42.4 °F 21.2 °F 37% 30.34 in 10.0 mi SW 8.1 mph - N/A   Scattered Clouds
8:55 PM 46.4 °F 42.9 °F 23.0 °F 40% 30.35 in 10.0 mi SSW 6.9 mph - N/A   Scattered Clouds
9:15 PM 46.4 °F 42.4 °F 21.2 °F 37% 30.35 in 10.0 mi SSW 8.1 mph - N/A   Scattered Clouds
9:35 PM 46.4 °F 42.4 °F 21.2 °F 37% 30.35 in 10.0 mi SW 8.1 mph - N/A   Clear
9:55 PM 44.6 °F 39.7 °F 21.2 °F 39% 30.35 in 10.0 mi SW 9.2 mph - N/A   Clear
10:15 PM 48.2 °F - 17.6 °F 30% 30.35 in 10.0 mi SW 9.2 mph - N/A   Clear
10:35 PM 44.6 °F 40.2 °F 21.2 °F 39% 30.35 in 10.0 mi SSW 8.1 mph - N/A   Clear
10:55 PM 50.0 °F - 14.0 °F 24% 30.35 in 10.0 mi SW 12.7 mph - N/A   Clear
11:15 PM 50.0 °F - 15.8 °F 26% 30.34 in 10.0 mi SW 10.4 mph - N/A   Clear
11:35 PM 46.4 °F 42.9 °F 17.6 °F 32% 30.34 in 10.0 mi SW 6.9 mph - N/A   Clear
11:55 PM 46.4 °F 42.9 °F 19.4 °F 34% 30.34 in 10.0 mi SW 6.9 mph - N/A   Clear